map of TFS home
TFS - Airport
Location
City:  Granadilla de Abone, Tenerife Island, Canary Islands, Spain
Name:Tenerife Sur
Old (Alt.):Tenerife South, Reina Sofía
ICAO:GCTS
IATA:TFS

Details
Type:Airport (Aerodrome, Airfield)
Use:Public/Civil
Latitude:28°02'40"N (28.044475)
Longitude:16°34'21"W (-16.572488)
Datum:WGS 1984
Elevation:209 ft (64 m)
Variation:5.12°W (WMM2015 magnetic declination)
0.12° annual change
Runways:1
Longest:10499 × 148 ft (3200 × 45 m), paved

Time
Time Zone:UTC+0 (DST+1)
Local Time:

Weather
METAR:GCTS 170400Z 07008KT 9999 FEW015 SCT025 BKN035 18/16 Q1022 NOSIG
TAF:GCTS 170200Z 1703/1803 32004KT 9999 SCT030 TX22/1714Z TN16/1706Z
BECMG 1703/1704 04018KT PROB40
TEMPO 1709/1720 04020G32KT

Related Locations
Nearby:
Farthest:NLK: 12162 mi / 19573 km
Norfolk Island, NF

Find:

   beyond  
but within

Other Information
Maps:
NOTAMs:
Links:
Sources:

  
flag of Spain
flag of Canary Islands
flag of Tenerife Island
  

Sectional Chart

Flight Planning
at skyvector.com

Satellite Image

Google Maps Satellite view

 

Copyright © 2004-2017 Karl L. Swartz. All rights reserved.
The Great Circle Mapper name and logo are trademarks of the Great Circle Mapper.
All other trademarks mentioned herein belong to their respective owners.
Please see credits for attibutions and further copyright information.

  Follow gcmap on Facebook Follow gcmap on Twitter Follow gcmap on Google+ GCmap on LinkedIn

hCard Microformat

Geo Microformat